Новоэкономическое

Украина / Донецкая область     48°19′40″N   37°19′55″E
темп.,
°C
ветер,
м/с
пор.,
м/с
влажн.,
%
обл.,
%
осадки,
мм/ч
давл.,
гПа
погр.,
м
12 апреля, пн
пн1200:00+10св51076100 0.0 1021781
03:00+9св4889100 0.0 1021300
06:00+7св3696100 0.1 1020189
09:00+11всв3480100 0.1 1020382
12:00+14ююв2271100 0.4 1020692
15:00+15ююз226796 0.4 1020782
18:00+13ююв4578100 0.0 1021360
21:00+11ю2487100 0.1 1022202
13 апреля, вт
вт1300:00+10ююз2486100 0.0 1022174
03:00+9ююз2387100 0.0 1022166
06:00+9юз1183100 0.0 102244
09:00+9зюз1279100 0.0 1022181
12:00+11ююз2273100 0.0 1022398
15:00+12ююз226699 0.0 1022628
18:00+13ю2368100 0.0 1021301
21:00+11ююв237498 0.0 102178
14 апреля, ср
ср1400:00+10ююз248088 0.0 1020139
03:00+8з118752 0.0 102010
06:00+8юз2283100 0.0 101930
09:00+10ююз1274100 0.0 1019241
12:00+13ююв2361100 0.0 1018969
15:00+15ююв235293 0.0 10171541
18:00+14юз226098 0.1 1017467
21:00+11зюз117084 0.1 101710
15 апреля, чт
чт1500:00+10юз2277100 0.0 101613
03:00+8зюз228578 0.0 101627
06:00+7зюз22870 0.0 101520
09:00+12ююз236284 0.0 1015390
12:00+16ю444039 0.0 10141503
15:00+16ююз8850100 0.0 10131693
18:00+12ю6866100 0.0 1014836
21:00+11ю477937 0.1 1014583
16 апреля, пт
пт1600:00+9ююз589098 0.1 1014478
03:00+6ююз48956 0.1 1015279
06:00+5ююз499510 0.0 1016314
09:00+7ююз6877100 0.0 1017783
12:00+9ююз5762100 0.0 10171328
15:00+11ююз5756100 0.0 10171577
18:00+11ю556097 0.1 10171131
21:00+8ююз347842 0.2 101888